Showing default

AFR-1, 56964

Orbit data source: Space-Track

AFR-1, 56964 is a payload satellite owned by Azista BST (IN) in SSO that was launched on Mon, 12 Jun 2023 UTC via an FALCON 9 launch vehicle from the Air Force Western Test Range (AFWTR). Payload-class satellites include a variety of spacecraft equipped with specific instruments for various scientific and technological missions. These include communications satellites like Starlink; space stations such as the ISS; scientific satellites like the Hubble; Earth observation satellites from companies like Planet Labs, Umbra, and HawkEye 360; GPS; miniature CubeSats for education and research; and military/defense satellites.

Loading next visibility...
Identifier
56964, 2023-084AJ
Orbit
SSO
Last TLE update
4 hours ago
Origin
Manufacturer
Azista BST
Mission
Operational Commercial Imaging
Bus & Motor
AFR, Unknown motor
Mass
80 kg wet, 80 kg dry
Launch date (UTC)
Icon of a cake. It is the launch day of the satellite!2023-06-12 (2 years ago)
Launch vehicle
FALCON 9
Launch site
Air Force Western Test Range (AFWTR)
Object type
Payload
Rocket body
Debris
Shape & HBR
Box + 1 Pan, 1 m
Radar Cross Section
1.100 m², Medium (>0.1 m² and < 1m²)

Expand to show TLE details & history

TLE from 4 hours ago
0 AFR-1
1 56964U 23084AJ  25163.53512148  .00003846  00000-0  16161-3 0  9992
2 56964  97.5816 288.8266 0011324 190.7690 169.3306 15.24006276110846
Epoch: 2025-06-12T12:50Z
TLE epoch observation values (Epoch: 2025-06-12T12:50:34.495Z)
Latitude
-0.00006°
Longitude
-164.919°
Altitude
504.511 km
Speed
7.608 km/s
True Right ascension
19h 15m 18s
True Declination
0° 00' 00"
Sunlit
Object was in full shadow at epoch
Visualization orbit readout
Latitude
78.21394°
Longitude
155.85425°
Altitude
509.533 km
Speed
7.615 km/s
Apparent Right ascension
15h 10m 14s
Apparent Declination
23° 12' 54"
Sunlit
Object is in daylight
Visualization observer readout
Local Sidereal Time
02:45:25
Azimuth
353.622° N
Elevation
-26.604°
Doppler factor
1
Orbital elements
Apogee altitude
498.517 km
Perigee altitude
482.961 km
Semi-major axis
6,868.876 km
Eccentricity
0.00113
Inclination
97.5816°
RAAN
288.8266°
Arg. of periapsis
190.769°
True anomaly
Unknown
Mean anomaly
169.3306°
Eccentric anomaly
Unknown
Mean motion
3.81254 °/min
Orbital period
94.43 mins
BSTAR
0.00016161
Loading maneuver chart data...
Loading SW <> Apogee altitude chart data...
Loading historical data...
Loading historical data...
Loading historical data...
Loading historical data...
Loading historical data...
Loading historical data...
Loading historical data...

AFR-1 Visibility forecast

Observer location: undefined°, undefined°

Span
Click to sort rows by Start time (UTC) header in descending order
Start Az.
Max El. time (UTC)
Max El. Az.
Max El.
End time (UTC)
End Az.
6 mins2025-06-12 21:16:55.109Z9.898° NNE2025-06-12 21:19:55.109Z298.888° NW44.697°2025-06-12 21:22:55.109Z196.479° SSW
5 mins2025-06-13 07:53:55.109Z129.107° SE2025-06-13 07:55:55.109Z80.729° E29.62°2025-06-13 07:58:55.109Z10.13° NNE
|